Other Surface Observations
Issued by NWS

Home | Current Version | Previous Version | Text Only | Print | Product List | Glossary On
Versions: 1 2 3 4 5 6 7 8 9 10 11 12 13 14 15 16 17 18 19 20 21 22 23 24 25 26 27 28 29 30 31 32 33 34 35 36 37 38 39 40 41 42 43 44 45 46 47 48 49 50
988
SXUS52 KTAE 241018
OSOTAE
OSOTAE
North Florida/South Alabama/Southwest Georgia Weather Roundup
National Weather Service Tallahassee Florida
500 AM EST WED JAN 24 2018

Note: "fair" indicates few or no clouds below 12,000 feet with no
significant weather and/or obstructions to visibility.

!FLZ017-115-028-034-025-241100
...North Florida...

CITY           SKY/WX    TMP DP  RH WIND       PRES   REMARKS
TALLAHASSEE    FAIR      38  34  85 CALM      30.20S
APALACHICOLA   FAIR      45  35  68 N7        30.20S WCI  41
PERRY          FAIR      39  36  89 CALM      30.19S
CROSS CITY     FAIR      36  35  99 N6        30.23F WCI  31
JACKSONVILLE   FAIR      41  35  79 CALM      30.17R
$$

!FLZ112-006-005-002-011-241100
...Florida Panhandle...

CITY           SKY/WX    TMP DP  RH WIND       PRES   REMARKS
MARIANNA       FAIR      37  33  85 NW3       30.21R
BONIFAY        NOT AVBL
PANAMA CITY NW FAIR      38  34  85 CALM      30.22R
TYNDALL AFB    FAIR      39  35  86 N3        30.23R
TYND DRONE APT FAIR      40  35  81 N3        30.23R
DE FUNIAK SPR  FAIR      40  32  73 N6        30.23S WCI  36
EGLIN AFB      PTCLDY    40  32  74 NW6       30.24R WCI  35
DESTIN         FAIR      47  34  60 N7        30.25R WCI  44
HURLBURT       FAIR      42  33  70 N7        30.24R WCI  38
CRESTVIEW      FAIR      41  32  70 N6        30.25R WCI  37
PENSACOLA      FAIR      43  33  68 N7        30.27R WCI  39
$$

!ALZ063-066-241100
...South Alabama...

CITY           SKY/WX    TMP DP  RH WIND       PRES   REMARKS
DOTHAN         FAIR      39  33  79 MISG      30.24R
OZARK CAIRNS   FAIR      41  31  68 NW5       30.22R WCI  38
FT RUCKER HELI FAIR      39  33  78 NW3       30.22S
RUCKER HELI 3    N/A     39  32  75 CALM      30.23R
RUCKER HELI 2  FAIR      39  33  78 N5        30.21R WCI  36
FLORALA APT    FAIR      38  32  79 CALM      30.27R
ANDALUSIA      FAIR      40  32  73 NW5       30.24R WCI  37
TROY           FAIR      35  31  85 NW3       30.24R
EUFALA         FAIR      39  32  76 VRB5      30.20S WCI  36
MOBILE         FAIR      42  32  67 N8        30.30R WCI  37
$$

!GAZ120>161-241100
...Southwest and South Central Georgia...

CITY           SKY/WX    TMP DP  RH WIND       PRES   REMARKS
THOMASVILLE    FAIR      41  39  93 CALM      30.20R
BAINBRIDGE       N/A     39  37  93 CALM      30.22R
MOODY AFB      MOCLDY    40  36  83 CALM      30.18R
VALDOSTA       FAIR      38  33  82 CALM      30.19R
MOULTRIE       FAIR      41  34  75 CALM      30.19S
BLAKELY        FAIR      39  34  81 CALM      30.22R
ALBANY         FAIR      41  32  70 N6        30.22R WCI  37
TIFTON         FAIR      43  33  69 N6        30.18R WCI  39
FITZGERALD     FAIR      42  34  72 N5        30.20R WCI  39
CORDELE        FAIR      44  32  63 N3        30.20R
AMERICUS       FAIR      37  28  70 N9        30.20S WCI  31
HOMERVILLE     FAIR      37  36  93 CALM      30.19R
$$

!GMZ750-755-770-775-241100
...Coastal and Buoy Obs...

STATION/POSITION TIME  TEMP    WIND        PRES    VSBY  WAVE
                       AIR SEA DIR/SP/G                  HT/PER
                 (UTC) (F)     (DEG/KT/KT) (MB)    (MI)  (FT/S)
KEATON BEACH     1000   43     360/  2/  3 1021.8R
CEDAR KEY        1000   49      10/  6/  9 1021.7R
C TOWER          1000   53      40/ 17/ 18 1023.2R
APALACHICOLA BUO NOT AVBL
PANAMA CITY BUOY 0950   59 68   20/ 17/ 21 1022.4R         4/ 5
MOBILE BUOY      1000   56 67   20/ 14/ 17 1025.2
ORANGE BCH AL BU NOT AVBL
$$




USA.gov is the U.S. government's official web portal to all federal, state and local government web resources and services.